Preview of NWS' New Version of Forecast
This preview is not operational and should not be used for support decisions.

Regional Weather Roundup (RWR)

Issued by Albany, NY (ALY)

                            
509 
ASUS41 KALY 212310
RWRALY

NEW YORK STATE HOURLY WEATHER ROUNDUP
NATIONAL WEATHER SERVICE ALBANY NY
700 PM EDT THU JUN 21 2018

NOTE: "FAIR" INDICATES FEW OR NO CLOUDS BELOW 12,000 FEET WITH NO
SIGNIFICANT WEATHER AND/OR NO OBSTRUCTIONS TO VISIBILITY.

NYZ032-033-038>043-046>054-057>066-NYZ062>081-082-084-220000-
EAST

  
CITY           SKY/WX    TMP DP  RH WIND       PRES   REMARKS
ALBANY         FAIR      76  49  38 N13       29.83R                  
GLENS FALLS    FAIR      69  45  41 NE14      29.86R                  
POUGHKEEPSIE   FAIR      81  55  40 N8        29.77R                  
NEWBURGH       PTSUNNY   81  61  50 VRB6      29.80R                  
MONTGOMERY     FAIR      81  58  45 NE7       29.78R                  
WHITE PLAINS   FAIR      79  62  56 S3        29.77R                  
ISLIP          PTSUNNY   74  65  73 S9        29.78R                  
NEW YORK CITY  PTSUNNY   83  59  44 SE9       29.76R                  
CENTRAL PARK   FAIR      81  56  42 VRB3      29.79R                  
$$

NYZ005>009-017-018-044>046-055-056-220000-
CENTRAL

  
CITY           SKY/WX    TMP DP  RH WIND       PRES   REMARKS
FULTON         FAIR      69  41  36 N12       29.91R                  
SYRACUSE       FAIR      70  49  47 NW12      29.88S                  
ROME           FAIR      73  42  32 N9        29.88R                  
ELMIRA         FAIR      71  54  54 NE8       29.88R                  
BINGHAMTON     FAIR      71  52  50 N10       29.88R                  
MONTICELLO       N/A    N/A N/A N/A MISG        N/A                   
$$

NYZ026>034-041>043-087-220000-
NORTH

  
CITY           SKY/WX    TMP DP  RH WIND       PRES   REMARKS
WATERTOWN      FAIR      69  42  37 N12       29.91R                  
FORT DRUM      NOT AVBL                                               
OGDENSBURG     FAIR      70  39  31 N7        29.93R                  
MASSENA        FAIR      70  42  36 VRB7      29.93S                  
SARANAC LAKE   FAIR      63  40  42 N8        29.91R                  
PLATTSBURGH    FAIR      67  40  37 N9        29.91R                  
$$

NYZ001>004-010>016-019>021-085-220000-
WEST

  
CITY           SKY/WX    TMP DP  RH WIND       PRES   REMARKS
NIAGARA FALLS  FAIR      73  36  25 NE13      29.90S                  
BUFFALO        PTSUNNY   70  46  42 NE13      29.90R                  
DUNKIRK        FAIR      71  56  58 NE15      29.87S                  
JAMESTOWN      FAIR      72  59  63 N12       29.89R                  
WELLSVILLE     FAIR      70  58  65 N9        29.92R                  
ROCHESTER      PTSUNNY   69  43  38 E7        29.92S                  
PENN YAN       FAIR      69  38  32 N9        29.92R                  
$$

             KEY
       WCI = WIND CHILL INDEX
       VSB = VISIBILITY
       HX  = HEAT INDEX
$$